Météo par heure à Juàzeirinho

Ce jour, 16 Juin, Mercredi

Heure Température Précipitation Vent Pression Humidité
00:00 +26°C° 0 mm 2 m/s 741 mmHg 73%
01:00 +25°C° 0 mm 2 m/s 741 mmHg 76%
02:00 +24°C° 0 mm 2 m/s 740 mmHg 80%
03:00 +24°C° 0 mm 2 m/s 740 mmHg 83%
04:00 +23°C° 0 mm 2 m/s 740 mmHg 85%
05:00 +23°C° 0 mm 2 m/s 741 mmHg 87%
06:00 +22°C° 0 mm 1 m/s 741 mmHg 89%
07:00 +25°C° 0 mm 2 m/s 741 mmHg 77%
08:00 +27°C° 0 mm 2 m/s 742 mmHg 66%
09:00 +30°C° 0 mm 3 m/s 742 mmHg 52%
10:00 +33°C° 0 mm 3 m/s 741 mmHg 46%
11:00 +35°C° 0 mm 2 m/s 741 mmHg 39%
12:00 +37°C° 0 mm 2 m/s 740 mmHg 33%
13:00 +37°C° 0 mm 2 m/s 739 mmHg 31%
14:00 +37°C° 0 mm 1 m/s 738 mmHg 29%
15:00 +37°C° 0 mm 1 m/s 737 mmHg 27%
16:00 +35°C° 0 mm 1 m/s 738 mmHg 31%
17:00 +35°C° 0 mm 2 m/s 738 mmHg 35%
18:00 +32°C° 0 mm 2 m/s 738 mmHg 39%
19:00 +30°C° 0.1 mm 2 m/s 739 mmHg 46%
20:00 +29°C° 0.1 mm 2 m/s 740 mmHg 54%
21:00 +28°C° 0.1 mm 2 m/s 741 mmHg 61%
22:00 +27°C° 0.1 mm 2 m/s 741 mmHg 66%
23:00 +26°C° 0.1 mm 2 m/s 741 mmHg 71%

Demain, 17 Juin, Jeudi

Heure Température Précipitation Vent Pression Humidité
00:00 +26°C° 0.1 mm 1 m/s 741 mmHg 75%
01:00 +25°C° 0 mm 1 m/s 741 mmHg 77%
02:00 +25°C° 0 mm 1 m/s 741 mmHg 78%
03:00 +25°C° 0 mm 1 m/s 740 mmHg 79%
04:00 +25°C° 0 mm 1 m/s 741 mmHg 79%
05:00 +25°C° 0 mm 1 m/s 741 mmHg 80%
06:00 +25°C° 0 mm 1 m/s 741 mmHg 80%
07:00 +26°C° 0 mm 1 m/s 742 mmHg 72%
08:00 +28°C° 0 mm 2 m/s 742 mmHg 64%
09:00 +29°C° 0 mm 2 m/s 743 mmHg 55%
10:00 +31°C° 0 mm 2 m/s 742 mmHg 49%
11:00 +34°C° 0 mm 2 m/s 742 mmHg 43%
12:00 +36°C° 0 mm 2 m/s 741 mmHg 36%
13:00 +36°C° 0 mm 2 m/s 740 mmHg 35%
14:00 +36°C° 0 mm 2 m/s 739 mmHg 35%
15:00 +36°C° 0 mm 2 m/s 739 mmHg 34%
16:00 +34°C° 0.1 mm 2 m/s 739 mmHg 41%
17:00 +31°C° 0.1 mm 2 m/s 739 mmHg 48%
18:00 +29°C° 0.1 mm 2 m/s 740 mmHg 56%
19:00 +28°C° 0.3 mm 2 m/s 740 mmHg 62%
20:00 +27°C° 0.3 mm 2 m/s 741 mmHg 68%
21:00 +26°C° 0.3 mm 2 m/s 741 mmHg 74%
22:00 +26°C° 0 mm 2 m/s 741 mmHg 77%
23:00 +25°C° 0 mm 2 m/s 742 mmHg 80%

Après-demain, 18 Juin, Vendredi

Heure Température Précipitation Vent Pression Humidité
00:00 +24°C° 0 mm 2 m/s 742 mmHg 83%
01:00 +24°C° 0 mm 2 m/s 741 mmHg 85%
02:00 +24°C° 0 mm 2 m/s 741 mmHg 87%
03:00 +23°C° 0 mm 2 m/s 741 mmHg 88%
04:00 +23°C° 0 mm 2 m/s 741 mmHg 89%
05:00 +23°C° 0 mm 1 m/s 742 mmHg 89%
06:00 +23°C° 0 mm 1 m/s 742 mmHg 90%
07:00 +25°C° 0 mm 2 m/s 743 mmHg 79%
08:00 +27°C° 0 mm 3 m/s 743 mmHg 68%
09:00 +30°C° 0 mm 4 m/s 744 mmHg 57%
10:00 +33°C° 0 mm 3 m/s 743 mmHg 49%
11:00 +35°C° 0 mm 3 m/s 742 mmHg 42%
12:00 +36°C° 0 mm 3 m/s 742 mmHg 35%
13:00 +36°C° 0 mm 3 m/s 741 mmHg 37%
14:00 +35°C° 0 mm 4 m/s 741 mmHg 38%
15:00 +34°C° 0 mm 4 m/s 740 mmHg 40%
16:00 +31°C° 0.1 mm 3 m/s 741 mmHg 48%
17:00 +29°C° 0.1 mm 3 m/s 741 mmHg 57%
18:00 +28°C° 0.1 mm 2 m/s 742 mmHg 65%
19:00 +27°C° 0 mm 1 m/s 742 mmHg 66%
20:00 +27°C° 0 mm 1 m/s 742 mmHg 68%
21:00 +27°C° 0 mm 1 m/s 743 mmHg 69%
22:00 +26°C° 0 mm 1 m/s 743 mmHg 70%
23:00 +26°C° 0 mm 2 m/s 743 mmHg 72%

19 Juin, Samedi

Heure Température Précipitation Vent Pression Humidité
00:00 +26°C° 0 mm 2 m/s 743 mmHg 73%
01:00 +26°C° 0 mm 3 m/s 742 mmHg 74%
02:00 +25°C° 0 mm 3 m/s 742 mmHg 74%
03:00 +25°C° 0 mm 4 m/s 742 mmHg 75%
04:00 +24°C° 0 mm 3 m/s 742 mmHg 76%
05:00 +24°C° 0 mm 3 m/s 743 mmHg 76%
06:00 +22°C° 0 mm 3 m/s 743 mmHg 77%
07:00 +26°C° 0 mm 4 m/s 743 mmHg 68%
08:00 +28°C° 0 mm 5 m/s 744 mmHg 59%
09:00 +30°C° 0 mm 6 m/s 744 mmHg 50%
10:00 +32°C° 0 mm 6 m/s 743 mmHg 47%
11:00 +33°C° 0 mm 6 m/s 743 mmHg 44%
12:00 +34°C° 0 mm 5 m/s 742 mmHg 41%
13:00 +33°C° 0 mm 6 m/s 742 mmHg 42%
14:00 +33°C° 0 mm 7 m/s 742 mmHg 43%
15:00 +32°C° 0 mm 7 m/s 741 mmHg 44%
16:00 +30°C° 0 mm 7 m/s 742 mmHg 48%
17:00 +29°C° 0 mm 6 m/s 742 mmHg 51%
18:00 +27°C° 0 mm 6 m/s 743 mmHg 55%
19:00 +27°C° 0 mm 5 m/s 743 mmHg 57%
20:00 +26°C° 0 mm 4 m/s 743 mmHg 60%
21:00 +25°C° 0 mm 3 m/s 743 mmHg 63%
22:00 +25°C° 0 mm 3 m/s 743 mmHg 67%
23:00 +24°C° 0 mm 3 m/s 743 mmHg 71%

20 Juin, Dimanche

Heure Température Précipitation Vent Pression Humidité
00:00 +23°C° 0 mm 2 m/s 743 mmHg 75%
01:00 +23°C° 0 mm 2 m/s 742 mmHg 77%
02:00 +23°C° 0 mm 2 m/s 742 mmHg 80%
03:00 +21°C° 0 mm 2 m/s 742 mmHg 83%
04:00 +21°C° 0 mm 2 m/s 742 mmHg 84%
05:00 +21°C° 0 mm 2 m/s 742 mmHg 85%
06:00 +22°C° 0 mm 1 m/s 743 mmHg 86%
07:00 +24°C° 0 mm 2 m/s 743 mmHg 77%
08:00 +27°C° 0 mm 3 m/s 743 mmHg 67%
09:00 +29°C° 0 mm 4 m/s 743 mmHg 58%
10:00 +30°C° 0 mm 4 m/s 743 mmHg 56%
11:00 +30°C° 0 mm 3 m/s 742 mmHg 55%
12:00 +31°C° 0 mm 3 m/s 742 mmHg 54%
13:00 +30°C° 0 mm 3 m/s 741 mmHg 56%
14:00 +30°C° 0 mm 3 m/s 741 mmHg 59%
15:00 +29°C° 0 mm 3 m/s 740 mmHg 61%
16:00 +28°C° 0.2 mm 3 m/s 740 mmHg 68%
17:00 +27°C° 0.2 mm 2 m/s 741 mmHg 75%
18:00 +26°C° 0.2 mm 2 m/s 741 mmHg 81%
19:00 +25°C° 0.3 mm 2 m/s 742 mmHg 84%
20:00 +25°C° 0.3 mm 2 m/s 742 mmHg 87%
21:00 +24°C° 0.3 mm 2 m/s 742 mmHg 90%
22:00 +24°C° 0.2 mm 2 m/s 742 mmHg 91%
23:00 +24°C° 0.2 mm 1 m/s 742 mmHg 93%

21 Juin, Lundi

Heure Température Précipitation Vent Pression Humidité
00:00 +23°C° 0.2 mm 1 m/s 742 mmHg 94%
01:00 +23°C° 0 mm 1 m/s 742 mmHg 94%
02:00 +23°C° 0 mm 1 m/s 742 mmHg 95%
03:00 +22°C° 0 mm 1 m/s 741 mmHg 95%
04:00 +20°C° 0 mm 0 m/s 742 mmHg 95%
05:00 +20°C° 0 mm 0 m/s 742 mmHg 95%
06:00 +20°C° 0 mm 0 m/s 742 mmHg 95%
07:00 +24°C° 0 mm 1 m/s 742 mmHg 88%
08:00 +26°C° 0 mm 1 m/s 743 mmHg 80%
09:00 +27°C° 0 mm 1 m/s 743 mmHg 73%
10:00 +30°C° 0 mm 2 m/s 742 mmHg 59%
11:00 +32°C° 0 mm 2 m/s 742 mmHg 46%
12:00 +35°C° 0 mm 3 m/s 741 mmHg 32%
13:00 +36°C° 0 mm 3 m/s 740 mmHg 29%
14:00 +37°C° 0 mm 3 m/s 740 mmHg 27%
15:00 +37°C° 0 mm 3 m/s 739 mmHg 24%
16:00 +36°C° 0 mm 3 m/s 739 mmHg 30%
17:00 +34°C° 0 mm 3 m/s 740 mmHg 36%
18:00 +31°C° 0 mm 3 m/s 740 mmHg 42%
19:00 +30°C° 0 mm 3 m/s 740 mmHg 47%
20:00 +29°C° 0 mm 3 m/s 741 mmHg 51%
21:00 +29°C° 0 mm 2 m/s 741 mmHg 56%
22:00 +27°C° 0 mm 2 m/s 741 mmHg 61%
23:00 +26°C° 0 mm 2 m/s 741 mmHg 66%
Voir plus

Nous avons besoin de votre consentement

Meteoprog et ses fournisseurs de services peuvent stocker et accéder à des données personnelles telles que des cookies, des identifiants d'appareils ou d'autres technologies similaires sur votre appareil et traiter ces données pour personnaliser le contenu et les publicités, ainsi que pour fournir des fonctionnalités de médias sociaux et analyser le trafic.

  • Stocker et/ou accéder à des informations sur votre appareil

    Des cookies, des identifiants d'appareils ou d'autres informations peuvent être stockés ou accessibles sur votre appareil aux fins indiquées ci-dessus.

  • Annonces et contenus personnalisés, mesure des annonces et des contenus, connaissance de l'audience et développement de produits

    Les annonces et le contenu peuvent être personnalisés en fonction d'un profil. D'autres données peuvent être ajoutées pour mieux personnaliser les annonces et le contenu. Les performances des publicités et du contenu peuvent être mesurées. Il est possible d'obtenir des informations sur le public qui a vu les publicités et le contenu. Ces données peuvent être utilisées pour développer ou améliorer l'expérience de l'utilisateur, les systèmes et les logiciels.

En cliquant sur "J'accepte", vous autorisez l'utilisation de cookies, des identifiants d'appareils, des balises web ou d'autres technologies similaires. Vos paramètres peuvent être modifiés dans le navigateur de votre appareil.

Dans certains cas, des intérêts légitimes peuvent être invoqués plutôt qu'un consentement. Vous pouvez en savoir plus à ce sujet dans notre Politique de confidentialité et de cookies.